Renton, WA
on Wednesday, November 14, 2012

Wednesday
Previous Day Next Day
Daily Summary
 ActualAverage (KSEA)Record (KSEA)
Temperature
Mean Temperature °F 46°F  
Max Temperature 52°F 51°F 65°F (1995)
Min Temperature 39°F 40°F 9°F (1955)
Degree Days
Heating Degree Days 20 19  
Month to date heating degree days 249  
Since 1 July heating degree days 846  
Cooling Degree Days 0 0  
Month to date cooling degree days 0  
Year to date cooling degree days 189  
Moisture
Dew Point 44°F   
Average Humidity 93    
Maximum Humidity 100    
Minimum Humidity 71    
Precipitation
Precipitation 0.11 in 0.23 in 2.61 in (2001)
Month to date precipitation 2.96  
Year to date precipitation 28.53  
Snow
Snow 0.00 in in T in (1963)
Month to date snowfall  
Since 1 July snowfall  
Snow Depth in   
Wind
Wind Speed 1 mph   
Max Wind Speed 7 mph   
Max Gust Speed mph   
Visibility 8 miles   
Events Rain   

Key: T is trace of precipitation, MM is missing value
Source: NWS Daily Summary
Time(PST)TemperatureDew PointHumidity Pressure Visibility Wind DirectionWind SpeedGust SpeedPrecipitationEvents Conditions
12:53 AM 46.0°F 46.0°F 100% 30.20 in 10.0 miles Calm Calm - 0.00 in   Overcast
1:53 AM 46.0°F 46.0°F 100% 30.21 in 10.0 miles Calm Calm - N/A   Overcast
2:16 AM 46.4°F 46.4°F 100% 30.20 in 10.0 miles Calm Calm - N/A   Overcast
2:45 AM 46.4°F 46.4°F 100% 30.20 in 10.0 miles Calm Calm - N/A   Overcast
2:53 AM 46.9°F 46.9°F 100% 30.22 in 10.0 miles Calm Calm - N/A   Overcast
3:53 AM 46.0°F 46.0°F 100% 30.22 in 4.0 miles Calm Calm - 0.02 in Rain Light Rain
4:21 AM 46.4°F 46.4°F 100% 30.21 in 6.0 miles Calm Calm - 0.01 in   Overcast
4:53 AM 46.0°F 46.0°F 100% 30.23 in 4.0 miles Calm Calm - 0.01 in Rain Light Rain
5:02 AM 46.4°F 46.4°F 100% 30.22 in 4.0 miles Calm Calm - 0.00 in Rain Light Rain
5:26 AM 46.4°F 46.4°F 100% 30.22 in 6.0 miles Calm Calm - 0.01 in   Overcast
5:40 AM 46.4°F 46.4°F 100% 30.23 in 9.0 miles Calm Calm - 0.01 in   Overcast
5:53 AM 46.0°F 46.0°F 100% 30.25 in 4.0 miles Calm Calm - 0.01 in Rain Heavy Rain
6:14 AM 46.4°F 46.4°F 100% 30.24 in 9.0 miles Calm Calm - 0.01 in Rain Light Rain
6:53 AM 45.0°F 45.0°F 100% 30.26 in 10.0 miles WNW 3.5 mph - 0.02 in   Overcast
7:53 AM 45.0°F 45.0°F 100% 30.27 in 10.0 miles South 3.5 mph - 0.01 in   Overcast
8:53 AM 46.0°F 46.0°F 100% 30.30 in 10.0 miles NW 3.5 mph - 0.02 in   Overcast
9:53 AM 46.0°F 46.0°F 100% 30.32 in 8.0 miles WNW 3.5 mph - 0.02 in   Overcast
10:53 AM 46.9°F 46.9°F 100% 30.33 in 9.0 miles NW 3.5 mph - N/A   Overcast
11:53 AM 48.0°F 46.0°F 93% 30.33 in 10.0 miles NNW 5.8 mph - N/A   Overcast
12:53 PM 48.9°F 45.0°F 86% 30.32 in 10.0 miles NNW 4.6 mph - N/A   Overcast
1:31 PM 50.0°F 44.6°F 82% 30.31 in 10.0 miles WNW 3.5 mph - N/A   Mostly Cloudy
1:53 PM 51.1°F 45.0°F 80% 30.32 in 10.0 miles NW 6.9 mph - N/A   Mostly Cloudy
2:53 PM 52.0°F 46.0°F 80% 30.32 in 10.0 miles NNW 4.6 mph - N/A   Mostly Cloudy
3:53 PM 50.0°F 44.1°F 80% 30.32 in 10.0 miles NNW 5.8 mph - N/A   Scattered Clouds
4:53 PM 51.1°F 42.1°F 71% 30.32 in 10.0 miles NNW 6.9 mph - N/A   Clear
5:53 PM 46.9°F 43.0°F 86% 30.32 in 10.0 miles Calm Calm - N/A   Clear
6:53 PM 48.9°F 43.0°F 80% 30.33 in 10.0 miles Calm Calm - N/A   Clear
7:53 PM 46.9°F 43.0°F 86% 30.33 in 10.0 miles Calm Calm - N/A   Clear
8:53 PM 46.9°F 43.0°F 86% 30.32 in 10.0 miles NNW 4.6 mph - N/A   Clear
9:53 PM 45.0°F 42.1°F 90% 30.31 in 10.0 miles NNW 3.5 mph - N/A   Clear
10:33 PM 42.8°F 39.2°F 87% 30.30 in 8.0 miles Calm Calm - N/A   Scattered Clouds
10:42 PM 41.0°F 39.2°F 93% 30.30 in 8.0 miles SE 3.5 mph - N/A   Mostly Cloudy
10:53 PM 41.0°F 37.9°F 89% 30.31 in 9.0 miles Calm Calm - N/A   Overcast
11:11 PM 41.0°F 37.4°F 87% 30.29 in 7.0 miles Calm Calm - N/A   Scattered Clouds
11:33 PM 39.2°F 37.4°F 93% 30.28 in 7.0 miles Calm Calm - N/A   Mostly Cloudy
11:49 PM 39.2°F 37.4°F 93% 30.28 in 1.5 miles Calm Calm - N/A   Overcast
11:53 PM 39.9°F 37.9°F 93% 30.30 in 0.8 miles Calm Calm - N/A   Overcast
Moon Phase
Nov. 14 Nov. 20 Nov. 28 Dec. 06 Dec. 13
Sunrise:07:13 AM (PST) Moon Rise:08:12 AM (PST)11/14
Sunset:04:33 PM (PST) Moon Set:05:22 PM (PST)11/14

Copyright © 2014 The Weather Underground, Inc.